Location: Ernsee
(50.8780°N, 12.0389°E)
Time: 09:44:19
(UTC+00:00)

Cosmos 2344 - Pass Details

Date: 20 January 2020
Orbit: 1255 x 2987 km, 63.3° (Epoch: 18 February)

Event Time Altitude Azimuth Distance (km) Brightness Sun altitude
Exits shadow 05:37:57 - 244° (WSW) 3,693 5.6 -13.2°
Reaches altitude 10° 05:39:15 10° 246° (WSW) 3,233 5.3 -13.0°
Maximum altitude 05:46:38 59° 326° (NW) 1,512 3.7 -11.9°
Drops below altitude 10° 05:55:21 10° 46° (NE) 3,776 6.4 -10.6°
Sets 05:58:49 0° 50° (NE) 4,971 7.1 -10.1°
